Simultaneous Nadir Overpasses (SNOs) Predictions

Prediction of SNOs between LANDSAT-8 and METOP-B Satellite Orbit:

Table of predicted SNOs for the next 14.0 days since TLE Epoch: 11/10/2018
Index Date (LANDSAT-8) Time (LANDSAT-8) Lat,Lon (LANDSAT-8) SZA (LANDSAT-8 ) Date (METOP-B) Time (METOP-B) Lat,Lon (METOP-B) SZA (METOP-B ) Distance(km) Time Diff (sec)
1 11/10/2018 05:58:40 -81.09, -50.30 79.47 11/10/2018 05:57:54 -81.09, -50.46 79.51 2.75 46
2 11/10/2018 06:48:05 81.12, 117.77 100.61 11/10/2018 06:48:33 81.11, 117.61 100.60 2.80 28
3 11/13/2018 01:32:55 -81.10, 16.34 78.68 11/13/2018 01:32:18 -81.11, 16.52 78.67 3.13 37
4 11/13/2018 02:22:21 81.11,-175.97 101.34 11/13/2018 02:22:59 81.11,-176.17 101.34 3.32 38
5 11/15/2018 21:07:11 -81.09, 82.60 77.99 11/15/2018 21:06:44 -81.10, 82.74 77.98 2.57 27
6 11/15/2018 21:56:36 81.12,-109.37 102.08 11/15/2018 21:57:23 81.12,-109.21 102.12 2.97 47
7 11/18/2018 16:41:25 -81.10, 149.19 77.30 11/18/2018 16:41:08 -81.10, 149.30 77.29 2.01 17
8 11/18/2018 17:30:50 81.12, -42.80 102.77 11/18/2018 17:31:47 81.13, -42.65 102.81 2.60 57
9 11/21/2018 12:15:40 -81.11,-144.24 76.66 11/21/2018 12:15:33 -81.11,-144.14 76.65 1.65 7




NCC Satellite Simultaneous Nadir Overpasses (SNOs) Prediction Service
